ECMWFNIL_500_spd_021.txt.gz
Wind_Speed
44 44 45 45 44 44 43 43 44 45 46 47 47 47 48 49 50 51 52 53 54 54 55 55 56 58 59 59 58 57 56 55 54 53 52 52 51 50 49 48 47 47
47 46 46 46 46 45 45 46 47 47 48 48 48 49 50 51 52 54 54 55 56 57 57 57 57 58 60 61 61 60 59 57 56 56 55 54 52 50 49 48 48 48
49 48 47 47 47 47 48 48 49 50 50 50 49 50 51 53 54 56 57 58 58 59 59 58 58 59 61 62 62 62 61 59 58 57 56 53 52 50 49 49 50 50
51 50 50 49 49 50 50 51 51 52 52 52 52 53 54 54 56 57 59 60 61 61 60 59 58 59 61 63 63 62 62 60 59 57 55 54 53 52 51 51 51 52
52 52 53 52 52 52 53 53 53 54 54 55 55 56 57 57 58 59 60 61 62 62 61 60 59 59 61 63 63 62 62 60 58 57 57 56 55 53 52 53 54 55
54 55 55 54 55 55 55 55 55 56 57 58 58 59 59 60 61 62 62 62 62 63 62 61 60 60 61 62 62 61 60 59 59 59 58 58 56 55 55 56 57 58
56 56 56 57 57 57 57 57 58 59 60 60 60 60 62 63 63 63 64 63 63 63 63 62 61 61 61 61 59 58 59 60 60 60 59 59 58 57 58 60 61 62
57 58 58 58 59 59 59 59 61 62 63 62 62 62 63 63 64 65 65 65 64 64 64 63 62 61 60 59 59 60 61 61 60 60 59 58 58 60 62 63 65 66
60 61 62 62 61 60 60 61 63 64 64 63 63 63 63 64 65 66 66 67 66 65 65 64 63 62 61 61 61 63 63 62 61 60 59 58 59 61 63 65 67 68
64 64 65 64 63 62 62 63 64 64 64 63 62 62 63 64 66 68 68 68 68 67 67 66 65 64 64 64 64 65 65 64 63 61 60 60 61 63 65 66 68 70
65 66 66 66 65 64 63 64 64 64 63 62 62 62 63 65 67 68 68 68 68 68 69 69 68 67 67 67 67 67 66 65 63 62 61 62 63 65 66 68 70 70
65 65 65 64 63 63 62 63 63 62 60 60 61 63 64 66 67 68 68 68 68 69 70 71 71 71 70 69 69 67 66 64 63 63 63 64 65 66 68 70 71 70
62 61 59 58 58 58 58 59 59 59 59 60 62 64 65 66 67 68 67 68 68 69 70 71 73 73 72 71 69 67 66 65 64 64 64 65 66 67 69 71 70 69
57 58 58 58 58 58 60 61 63 64 64 64 65 66 67 67 68 68 68 69 69 69 69 71 72 72 72 71 69 68 67 66 65 65 65 66 67 68 70 70 69 68
58 59 59 60 62 63 64 65 66 67 67 66 66 67 68 69 70 70 70 70 70 70 70 71 72 72 72 71 70 68 67 66 66 66 66 67 68 69 70 70 69 68
64 65 65 66 68 69 68 67 66 66 66 66 67 69 70 71 71 71 71 71 71 71 71 71 71 71 70 69 67 66 66 66 66 67 67 68 69 70 70 69 68 66
75 74 74 75 75 72 69 66 66 67 68 68 69 71 73 74 73 73 72 73 72 72 72 71 70 69 67 65 64 64 64 65 65 66 67 68 69 70 69 67 64 62
82 83 82 79 74 69 66 66 68 69 69 70 71 73 75 75 75 75 75 76 76 75 73 71 69 67 65 64 63 63 64 65 65 67 68 69 70 69 67 63 61 60
83 83 81 76 71 67 66 68 70 71 71 72 74 76 76 76 76 76 76 77 77 76 73 70 68 66 65 64 63 64 64 66 67 68 69 70 69 67 64 61 59 58
79 78 76 73 70 68 68 70 72 73 75 75 76 77 77 76 75 75 75 75 75 73 71 69 68 66 65 64 64 65 66 67 68 70 70 69 67 64 62 59 58 58
75 75 73 72 71 70 71 73 75 76 77 76 76 75 75 74 74 73 73 72 71 70 69 68 66 65 65 65 66 67 68 70 70 70 68 67 65 63 61 59 58 57
76 76 75 74 74 75 77 78 79 78 76 75 74 73 73 72 71 70 69 68 67 67 67 66 65 65 66 67 68 69 70 71 70 69 68 67 64 61 59 59 57 55
78 79 79 78 78 80 82 83 81 79 76 75 74 74 73 72 70 68 66 65 65 65 66 66 66 66 67 69 69 70 71 71 70 70 68 65 61 59 58 58 56 54
80 80 81 81 81 83 84 83 79 76 74 73 74 74 74 72 70 69 67 65 64 64 65 66 66 68 70 70 70 71 70 71 71 69 65 61 58 57 57 55 54 53
79 80 79 80 80 81 80 77 74 71 70 69 70 71 73 73 72 71 69 66 64 63 64 65 67 69 71 70 70 71 70 70 68 65 62 59 57 56 55 53 53 53
73 75 74 73 73 74 74 74 73 72 70 69 70 72 74 75 76 75 72 68 65 64 64 65 67 70 72 70 70 70 70 68 66 64 62 59 57 56 54 54 55 54

ECMWFNIL_500_spd_024.txt.gz
Wind_Speed
49 48 47 46 45 45 44 44 45 46 47 48 47 47 47 47 47 46 45 44 43 43 44 45 45 46 47 47 47 48 48 49 50 52 52 53 52 52 52 52 51 51
51 50 50 49 48 47 46 46 47 48 49 50 50 50 50 49 49 48 46 45 45 46 46 47 47 47 48 48 48 49 50 51 52 53 54 54 54 54 54 53 53 53
54 54 53 53 52 50 49 49 50 51 51 52 52 51 51 51 50 49 48 47 47 48 49 49 49 49 49 49 49 50 51 52 53 54 55 55 55 55 55 55 55 54
57 57 56 56 55 55 54 53 52 53 53 53 53 52 52 52 52 51 50 50 50 50 51 51 52 51 51 51 52 52 53 53 53 54 54 55 55 56 56 57 56 57
58 59 59 59 59 59 58 57 56 55 55 54 54 53 53 52 52 53 53 52 52 53 54 54 54 53 53 54 54 54 54 54 53 53 54 54 55 57 57 58 58 58
62 61 61 62 62 63 63 61 59 58 57 56 55 54 53 53 54 54 54 54 55 55 56 56 56 55 56 56 56 55 55 54 54 54 54 54 56 57 58 59 59 59
68 66 65 65 65 65 65 64 62 60 58 56 56 56 55 55 55 56 56 57 57 58 59 59 59 58 58 58 57 56 55 55 54 54 54 55 56 58 59 61 61 61
69 69 69 68 67 66 65 64 63 61 59 58 58 58 57 57 58 59 59 60 60 60 61 61 61 61 61 60 58 57 56 56 56 56 55 56 56 57 60 62 63 64
65 68 70 70 69 67 65 63 61 60 60 60 61 61 61 61 60 61 62 62 63 62 62 62 62 62 62 61 60 59 58 58 58 58 58 58 58 58 60 62 64 65
62 65 70 72 72 70 67 64 62 61 61 62 63 63 63 63 63 63 64 64 64 63 63 63 63 64 64 63 62 61 61 61 61 61 60 60 60 61 61 63 65 67
60 63 69 72 74 73 71 68 66 64 64 65 65 65 65 65 65 66 66 66 66 65 65 65 65 65 66 66 64 64 63 63 62 62 62 62 62 62 63 65 67 68
62 63 66 70 73 74 75 73 70 67 67 68 68 68 67 66 66 65 65 65 65 65 64 64 64 65 66 66 65 65 65 64 63 63 63 64 64 65 65 66 68 69
67 67 67 68 70 73 75 75 73 71 70 71 72 71 68 66 64 62 60 59 60 60 60 61 62 64 66 66 67 67 66 65 64 64 65 65 66 67 67 68 69 70
72 73 73 72 72 73 74 75 74 73 72 72 73 72 69 65 61 59 58 58 59 61 62 62 64 65 67 68 69 69 68 66 66 66 66 67 68 69 70 70 70 71
77 77 77 76 75 74 73 73 74 74 74 73 72 70 67 64 61 59 60 61 62 64 66 66 65 66 67 69 70 70 69 68 68 68 68 69 70 71 72 72 72 72
83 82 81 79 77 75 74 75 75 76 76 75 74 71 68 64 63 62 63 65 66 67 69 68 67 67 68 69 70 70 71 71 70 70 71 71 72 73 73 74 74 74
83 82 82 81 79 76 74 75 77 78 78 77 76 74 71 68 68 69 70 70 70 70 71 70 69 69 69 70 71 71 72 72 72 72 73 73 74 74 75 75 76 76
80 79 79 80 80 78 76 77 79 79 79 78 77 77 77 77 79 79 77 74 73 74 74 72 70 70 70 71 72 73 74 74 74 74 74 75 75 75 75 76 76 76
78 77 77 78 78 78 77 78 79 80 80 80 81 82 84 84 84 83 80 77 76 78 77 74 73 73 74 75 75 75 76 76 75 75 75 75 75 75 75 75 74 73
79 78 78 78 78 79 79 80 81 82 82 82 82 83 83 81 80 80 79 78 78 79 79 77 76 76 77 77 77 77 77 76 76 75 75 75 75 74 72 70 69 68
78 78 78 78 78 78 79 79 80 80 80 80 79 79 78 78 79 79 79 78 78 79 79 79 79 80 80 79 80 79 79 78 77 77 77 77 76 73 70 67 66 66
79 78 78 78 78 78 78 78 79 79 79 80 80 80 81 82 82 80 78 78 79 80 81 81 82 82 82 81 81 81 80 80 79 79 77 75 73 69 67 66 66 65
87 84 82 81 81 81 81 80 81 81 82 84 86 87 87 86 84 80 77 78 81 83 84 84 85 84 84 84 82 81 81 80 78 75 72 68 66 64 63 64 65 65
91 90 89 89 89 90 89 86 84 85 86 88 88 87 86 84 84 81 78 78 80 84 86 86 85 85 86 85 82 81 81 78 72 68 66 64 63 63 63 65 66 66
96 96 95 92 90 90 89 86 83 82 83 83 82 81 80 81 82 82 81 81 83 85 87 88 87 88 88 85 82 82 80 76 71 68 65 63 62 62 63 64 65 66
96 94 89 81 76 74 74 74 74 74 74 75 75 75 76 77 78 79 81 85 87 87 86 87 87 86 85 81 79 77 75 72 69 68 65 64 64 65 65 66 68 68

ECMWFNIL_500_spd_030.txt.gz
Wind_Speed
56 54 54 56 59 60 60 61 61 60 57 55 55 55 55 56 57 58 59 61 62 63 63 63 63 63 63 63 63 63 63 64 64 64 63 62 60 59 58 56 57 57
60 56 54 56 58 60 60 61 61 62 60 59 57 57 56 56 57 57 58 59 61 63 64 65 64 64 64 64 64 65 65 65 65 65 64 63 62 61 60 59 59 60
61 57 55 57 58 60 61 60 61 61 62 61 60 59 59 58 57 57 58 59 60 62 64 65 65 65 65 65 65 65 66 66 66 66 65 65 65 64 63 62 62 62
58 55 55 57 59 61 62 62 62 63 63 62 61 60 60 59 58 57 58 59 60 62 63 64 65 65 65 65 66 66 66 66 67 67 67 67 66 65 64 64 64 63
56 55 55 58 59 60 62 63 64 65 65 64 63 62 61 59 58 57 57 58 60 62 63 65 65 65 65 65 66 66 67 67 67 68 68 67 66 65 65 66 65 65
56 56 57 59 60 61 61 63 64 66 66 66 66 65 64 62 60 59 59 60 61 62 64 65 66 67 67 67 66 66 67 67 67 68 67 66 66 66 67 67 67 66
57 58 59 60 61 62 63 64 65 66 67 69 69 69 68 66 64 63 63 64 65 65 66 67 68 68 68 68 67 67 67 67 67 67 67 67 67 68 68 69 68 67
58 60 62 62 62 62 63 64 65 66 68 69 71 73 73 71 69 67 68 70 70 69 68 69 69 69 69 68 68 68 69 69 68 67 67 68 68 69 69 70 70 69
60 61 63 64 64 65 66 67 68 68 69 71 72 74 75 76 75 74 73 75 75 74 72 70 70 70 70 70 70 70 71 71 71 71 71 70 70 70 70 71 71 71
63 63 64 66 67 68 69 71 72 72 72 73 73 74 76 78 79 79 79 79 78 76 75 74 73 72 72 72 72 73 74 74 74 75 75 75 74 73 72 72 72 72
69 69 69 71 72 73 73 73 75 76 76 76 75 76 77 78 79 80 81 80 79 78 77 76 76 75 74 73 73 74 75 77 77 77 77 77 77 76 75 74 73 72
79 79 78 78 78 79 79 77 77 78 79 79 79 78 77 77 77 78 78 78 78 79 79 79 79 78 77 76 76 75 76 77 78 79 79 78 78 79 78 77 76 73
84 84 84 84 83 83 82 81 80 80 81 82 82 79 78 77 77 77 77 77 78 80 81 82 82 81 79 79 78 78 77 77 78 79 80 79 79 79 80 79 77 75
82 83 83 84 83 83 82 81 81 82 84 85 85 84 83 83 82 81 80 79 80 81 82 83 84 84 83 82 82 82 82 81 80 80 80 80 80 80 80 79 77 75
83 82 82 81 81 81 80 80 80 81 84 85 87 87 88 88 89 88 87 86 85 84 84 84 85 85 86 86 85 85 85 85 84 84 84 83 82 81 81 80 79 77
88 86 85 83 82 82 81 81 80 80 81 83 84 86 86 88 89 90 91 91 90 90 90 90 90 89 89 89 89 88 87 87 86 86 86 86 83 80 79 79 78 77
90 89 88 88 87 87 86 86 85 85 84 84 84 84 85 86 87 89 90 91 91 92 93 95 95 94 92 92 93 93 92 90 89 88 87 87 84 80 76 75 75 74
92 93 93 93 92 91 90 89 90 90 90 90 89 88 88 87 88 89 89 90 91 91 92 94 95 96 96 95 95 96 95 93 92 91 89 87 85 82 78 75 74 74
97 98 98 99 98 97 95 93 91 91 92 92 92 91 91 90 89 89 89 90 91 92 93 93 93 94 96 96 95 95 95 94 93 92 91 89 87 85 82 79 76 75
103 103 104 104 103 103 102 100 98 95 94 93 94 93 93 92 91 90 89 90 91 92 93 94 94 94 95 95 94 94 95 96 94 92 91 90 89 88 86 83 80 76
108 108 108 108 106 105 105 104 104 102 101 99 98 97 97 96 95 94 93 93 93 93 93 94 95 96 97 96 96 96 97 98 97 96 95 93 92 90 88 86 83 78
108 109 109 108 108 107 106 105 105 105 105 105 104 103 102 101 100 98 97 97 97 97 97 95 95 97 99 99 99 99 99 99 98 98 98 97 95 93 91 89 87 84
104 104 105 105 106 106 106 106 106 104 104 105 105 106 105 105 104 102 100 98 99 100 100 98 97 97 99 100 100 101 101 101 100 99 99 97 94 92 91 90 89 87
98 99 99 100 101 102 103 104 104 104 103 103 104 104 104 104 104 104 102 100 98 99 100 100 98 98 99 100 101 101 102 102 102 101 101 98 95 92 90 89 88 87
94 95 96 96 97 98 99 99 100 101 101 102 102 102 101 101 102 102 101 100 97 97 99 100 100 100 101 102 102 103 103 103 102 101 100 99 97 96 94 94 92 90
91 92 93 94 95 96 96 97 97 97 98 99 99 99 100 100 100 100 99 98 97 96 96 97 99 101 102 103 103 102 103 103 103 101 99 97 97 96 96 96 94 92

ECMWFNIL_500_spd_033.txt.gz
Wind_Speed
56 55 55 54 54 55 56 57 58 59 59 57 56 56 57 58 59 61 62 63 62 61 61 61 62 61 61 61 61 61 61 61 61 61 62 62 62 63 64 64 65 66
59 58 57 57 58 58 59 60 61 62 62 61 59 58 58 59 60 62 64 64 64 62 61 61 62 62 62 62 62 62 62 62 61 61 61 61 61 63 63 64 65 66
63 62 61 61 61 62 62 63 64 65 64 63 62 60 60 60 61 63 64 66 66 64 63 62 62 62 63 62 63 63 62 63 62 62 62 61 61 61 62 63 65 66
65 64 64 63 64 64 64 66 67 67 67 66 65 63 63 63 64 65 66 67 68 67 66 65 64 64 64 64 64 64 64 64 64 64 63 62 61 60 60 61 63 65
66 66 65 65 66 66 67 68 69 70 70 69 68 67 65 65 65 66 67 69 70 70 69 68 67 67 66 66 66 66 65 65 65 65 65 63 62 61 60 60 61 62
67 67 67 68 69 69 70 71 72 72 73 73 72 71 69 68 68 68 69 70 71 71 71 70 69 69 68 68 69 69 68 67 66 66 65 64 64 63 62 62 61 61
68 67 67 68 68 69 70 71 72 72 73 74 74 74 73 71 71 71 72 73 73 73 72 71 70 69 69 70 70 70 71 70 68 68 67 66 66 65 64 64 64 63
67 67 67 67 67 68 70 70 71 73 74 74 75 75 76 75 74 75 76 77 77 75 74 72 71 70 70 70 71 71 72 72 71 69 68 67 68 68 68 68 67 66
70 70 69 68 67 68 69 71 72 74 76 76 76 76 77 78 77 78 79 79 79 78 76 75 74 73 72 72 72 72 73 73 73 72 70 70 69 69 69 70 70 69
76 76 75 74 73 71 71 72 73 75 76 76 76 77 78 79 80 79 79 77 76 76 76 76 76 77 77 76 76 76 76 76 75 75 75 74 72 70 69 70 71 71
78 78 78 79 79 78 77 76 76 76 76 76 76 77 78 80 81 81 79 77 75 74 74 74 76 78 80 81 81 80 80 79 78 77 76 75 73 71 71 71 71 72
78 78 78 79 80 82 82 82 81 81 80 80 80 80 81 82 83 82 82 81 80 78 77 76 77 78 80 81 82 83 83 82 81 78 75 74 73 73 73 73 73 73
82 80 79 78 79 81 82 84 85 85 85 85 85 86 86 87 87 87 86 86 85 84 83 82 81 80 81 81 82 83 83 83 82 80 78 77 76 75 75 76 77 77
89 87 85 83 82 82 82 83 84 84 85 86 86 87 88 89 90 90 90 90 90 90 89 87 86 85 86 85 85 84 84 83 82 81 80 80 79 78 78 78 79 80
95 94 93 92 91 90 89 88 87 87 87 87 88 88 88 88 89 90 90 90 90 90 90 90 89 90 90 91 90 88 86 85 84 82 82 82 82 81 81 82 83 83
97 97 96 96 95 95 94 93 93 92 92 92 93 92 92 91 90 90 90 90 89 89 90 90 91 91 92 92 93 92 90 88 86 85 84 84 85 84 84 85 86 86
96 96 96 95 94 93 93 93 94 94 95 96 97 97 97 97 96 94 93 92 91 89 88 89 90 91 92 92 93 94 94 92 91 89 88 86 86 86 87 88 89 89
96 96 96 96 95 95 95 96 97 98 98 98 98 99 100 100 100 99 97 96 95 93 91 89 88 89 91 92 93 95 96 97 96 95 94 92 90 88 88 88 90 91
100 100 99 99 99 99 100 101 103 104 104 103 102 102 102 102 102 102 101 100 99 98 96 94 91 90 91 93 94 95 96 97 98 98 99 99 98 96 94 93 92 91
105 105 105 105 105 105 106 107 108 109 108 108 107 106 106 106 105 105 105 104 103 102 101 99 97 95 95 95 96 97 98 99 99 99 99 99 99 100 100 99 98 96
108 109 109 109 109 110 110 110 110 110 110 111 110 110 110 110 110 109 109 108 107 106 105 104 103 103 102 100 98 99 100 102 102 102 101 101 100 99 99 100 100 99
107 108 108 108 109 109 109 109 108 108 109 109 110 110 111 111 111 112 113 112 112 111 109 108 107 108 108 107 105 103 103 103 104 105 105 104 103 102 102 101 101 101
102 102 102 103 103 104 104 104 105 105 105 106 107 107 108 108 109 111 112 113 114 114 113 112 110 109 110 110 110 110 109 108 107 107 107 106 105 105 105 105 104 103
94 95 96 97 97 97 98 99 100 101 101 102 103 103 104 104 105 106 107 109 111 112 113 113 112 111 109 109 109 111 112 112 111 109 109 108 108 107 107 107 106 105
90 91 92 93 93 94 95 96 96 97 97 98 99 99 100 100 100 101 102 103 104 105 107 109 110 109 108 106 106 107 108 111 112 112 110 110 109 109 109 109 107 105
88 89 90 90 91 92 92 93 93 93 94 95 96 96 96 97 97 97 98 98 99 100 101 102 103 104 102 101 100 101 103 105 107 109 110 109 110 110 111 111 110 108